FW0211 Weather Reports


Display with metric or nautical units.
time (UTC)temp
F
wind
direction
speed
MPH
gust
MPH
rain 1hr
in
rain 24hr
in
rain mn
in
humidity
%
barometer
mb
20260505080041 74 185 24.0 28.0 0.00 0.00 0.00 83 1010.7
20260505074536 74 190 22.0 28.0 0.00 0.00 0.00 83 1010.8
20260505073034 74 192 20.0 29.0 0.00 0.00 0.00 82 1010.9
20260505071534 74 160 20.0 28.0 0.00 0.00 0.00 82 1010.9
20260505070030 74 186 18.0 28.0 0.00 0.00 0.00 82 1011.3
20260505064529 74 184 21.0 30.0 0.00 0.00 0.00 81 1011.5
20260505063029 74 178 20.0 28.0 0.00 0.00 0.00 81 1011.5
20260505061538 74 360 22.0 29.0 0.00 0.00 0.00 81 1011.6
20260505060027 74 174 19.0 29.0 0.00 0.00 0.00 80 1011.7
20260505054535 74 178 19.0 29.0 0.00 0.00 0.00 80 1011.8
20260505053026 74 158 19.0 28.0 0.00 0.00 0.00 80 1012.0
20260505051523 74 159 18.0 28.0 0.00 0.00 0.00 79 1012.0
20260505041517 74 360 20.0 24.0 0.00 0.00 0.00 78 1012.4
20260505040033 74 184 19.0 26.0 0.00 0.00 0.00 78 1012.4
20260505034518 74 174 19.0 26.0 0.00 0.00 0.00 77 1012.5
20260505033016 74 162 19.0 28.0 0.00 0.00 0.00 77 1012.5
20260505031514 74 360 19.0 29.0 0.00 0.00 0.00 77 1012.6
20260505030016 74 360 19.0 27.0 0.00 0.00 0.00 77 1012.7
20260505024512 74 155 20.0 25.0 0.00 0.00 0.00 77 1012.7
20260505023013 74 137 17.0 24.0 0.00 0.00 0.00 77 1012.9
20260505021511 74 146 17.0 25.0 0.00 0.00 0.00 76 1012.6
20260505020013 74 144 17.0 24.0 0.00 0.00 0.00 76 1012.5
20260505014509 74 170 15.0 21.0 0.00 0.00 0.00 76 1012.4
20260505013009 74 360 17.0 23.0 0.00 0.00 0.00 75 1012.2
20260505011509 74 167 16.0 22.0 0.00 0.00 0.00 75 1012.2
20260505010009 74 153 16.0 20.0 0.00 0.00 0.00 74 1012.1
20260505004512 74 155 14.0 21.0 0.00 0.00 0.00 73 1012.3
20260505003004 75 360 15.0 20.0 0.00 0.00 0.00 72 1012.5
20260505001504 75 360 15.0 21.0 0.00 0.00 0.00 72 1012.5
20260505000003 75 169 14.0 20.0 0.00 0.00 0.00 71 1012.5
20260504234613 75 172 14.0 19.0 0.00 0.00 0.00 70 1012.5
20260504233102 75 360 12.0 20.0 0.00 0.00 0.00 70 1012.8
20260504231557 76 360 13.0 21.0 0.00 0.00 0.00 69 1013.0
20260504230057 76 360 13.0 19.0 0.00 0.00 0.00 69 1013.1
20260504224555 76 360 13.0 18.0 0.00 0.00 0.00 70 1013.3
20260504223055 76 360 12.0 19.0 0.00 0.00 0.00 70 1013.5
20260504221553 76 182 13.0 15.0 0.00 0.00 0.00 69 1013.6
20260504220100 76 182 14.0 19.0 0.00 0.00 0.00 69 1013.8
20260504214551 76 169 12.0 20.0 0.00 0.00 0.00 69 1013.9
20260504213108 76 155 12.0 17.0 0.00 0.00 0.00 68 1013.9
20260504211548 77 166 11.0 18.0 0.00 0.00 0.00 68 1014.4
20260504210047 77 360 11.0 17.0 0.00 0.00 0.00 67 1014.3
20260504204547 77 211 13.0 17.0 0.00 0.00 0.00 66 1014.6
20260504203044 77 167 13.0 17.0 0.00 0.00 0.00 67 1014.7
20260504201542 77 360 11.0 14.0 0.00 0.00 0.00 67 1014.8
20260504200041 77 360 9.0 16.0 0.00 0.00 0.00 67 1014.9
20260504194539 77 188 10.0 16.0 0.00 0.00 0.00 67 1015.3
20260504193053 77 138 10.0 15.0 0.00 0.00 0.00 65 1015.5
20260504191537 77 169 12.0 17.0 0.00 0.00 0.00 65 1015.6
20260504190038 76 168 11.0 19.0 0.00 0.00 0.00 67 1015.5
20260504184532 76 360 15.0 23.0 0.00 0.00 0.00 68 1015.9
20260504183034 76 155 14.0 18.0 0.00 0.00 0.00 67 1015.9
20260504181534 76 182 14.0 22.0 0.00 0.00 0.00 67 1016.0
20260504180027 75 205 13.0 19.0 0.00 0.00 0.00 67 1016.2
20260504174522 75 151 14.0 21.0 0.00 0.00 0.00 67 1016.2
20260504173022 76 360 15.0 20.0 0.00 0.00 0.00 68 1016.3
20260504171517 75 360 14.0 21.0 0.00 0.00 0.00 67 1016.9
20260504081505 71 360 12.0 19.0 0.00 0.00 0.00 57 1017.3